BAW742 EGPH-EGLL

Flight info

Callsign BAW742
Flight time 0h 57m
Altitude 33000
Route GOSAM P600 FENIK L612 NAVSO DCT AKOMU DCT VAMEB DCT NUGRA
Aircraft A21N/M-SDE2E3FGHIRWXY/LB1

Departure

Time 2026-04-20 12:55
Airport Edinburgh Airport (EGPH)

Arrival

Time 2026-04-20 13:53
Airport London Heathrow Airport (EGLL)
Time Latitude Longitude Altitude Speed Heading
2026-04-20 12:41 55.94848 -3.36897 108 ft 0 kts 239°
2026-04-20 12:48 55.94852 -3.36884 107 ft 3 kts 239°
2026-04-20 12:48 55.94862 -3.36855 108 ft 3 kts 241°
2026-04-20 12:49 55.94866 -3.36824 106 ft 3 kts 278°
2026-04-20 12:49 55.94857 -3.36797 108 ft 3 kts 339°
2026-04-20 12:49 55.94857 -3.36796 108 ft 0 kts 344°
2026-04-20 12:51 55.94870 -3.36803 105 ft 3 kts 344°
2026-04-20 12:51 55.94908 -3.36829 107 ft 8 kts 325°
2026-04-20 12:51 55.94910 -3.36940 106 ft 16 kts 245°
2026-04-20 12:52 55.94853 -3.37113 108 ft 16 kts 238°
2026-04-20 12:52 55.94794 -3.37286 109 ft 16 kts 238°
2026-04-20 12:52 55.94717 -3.37512 113 ft 31 kts 238°
2026-04-20 12:52 55.94610 -3.37827 114 ft 30 kts 239°
2026-04-20 12:53 55.94500 -3.38153 112 ft 31 kts 239°
2026-04-20 12:53 55.94394 -3.38469 117 ft 29 kts 239°
2026-04-20 12:53 55.94301 -3.38744 119 ft 8 kts 239°
2026-04-20 12:53 55.94289 -3.38824 123 ft 11 kts 278°
2026-04-20 12:54 55.94361 -3.38944 120 ft 20 kts 336°
2026-04-20 12:54 55.94434 -3.38903 118 ft 0 kts 55°
2026-04-20 12:54 55.94435 -3.38900 118 ft 0 kts 55°
2026-04-20 12:54 55.94436 -3.38898 118 ft 3 kts 55°
2026-04-20 12:55 55.94582 -3.38472 114 ft 80 kts 59°
2026-04-20 12:55 55.95018 -3.37190 114 ft 158 kts 58°
2026-04-20 12:55 55.95590 -3.35480 784 ft 168 kts 59°
2026-04-20 12:55 55.96278 -3.33835 1673 ft 164 kts 46°
2026-04-20 12:56 55.97158 -3.32463 2357 ft 178 kts 40°
2026-04-20 12:56 55.98216 -3.30999 2680 ft 206 kts 39°
2026-04-20 12:56 55.99450 -3.29429 3044 ft 229 kts 31°
2026-04-20 12:56 56.01019 -3.28634 3663 ft 243 kts
2026-04-20 12:57 56.02611 -3.29619 4359 ft 249 kts 321°
2026-04-20 12:57 56.03573 -3.32151 5099 ft 253 kts 285°
2026-04-20 12:57 56.03547 -3.35320 5730 ft 262 kts 252°
2026-04-20 12:57 56.02949 -3.38422 6648 ft 265 kts 250°
2026-04-20 12:58 56.02383 -3.41541 7524 ft 272 kts 252°
2026-04-20 12:58 56.01842 -3.44842 8321 ft 280 kts 253°
2026-04-20 12:58 56.01321 -3.48232 9278 ft 284 kts 255°
2026-04-20 12:58 56.00809 -3.51672 10238 ft 289 kts 255°
2026-04-20 12:59 56.00292 -3.55208 10916 ft 304 kts 255°
2026-04-20 12:59 55.99738 -3.59007 11295 ft 329 kts 255°
2026-04-20 12:59 55.99136 -3.63112 11671 ft 352 kts 255°
2026-04-20 12:59 55.98499 -3.67443 12272 ft 365 kts 255°
2026-04-20 13:00 55.97850 -3.71852 13188 ft 369 kts 255°
2026-04-20 13:00 55.97193 -3.76301 14113 ft 373 kts 255°
2026-04-20 13:00 55.96525 -3.80816 14857 ft 378 kts 255°
2026-04-20 13:00 55.95847 -3.85379 15602 ft 382 kts 255°
2026-04-20 13:01 55.95162 -3.89977 16426 ft 384 kts 255°
2026-04-20 13:01 55.94471 -3.94590 17234 ft 386 kts 255°
2026-04-20 13:01 55.93575 -3.99128 17950 ft 391 kts 246°
2026-04-20 13:01 55.92163 -4.03303 18666 ft 396 kts 232°
2026-04-20 13:02 55.90236 -4.06766 19311 ft 401 kts 219°
2026-04-20 13:02 55.87950 -4.09653 19958 ft 405 kts 214°
2026-04-20 13:02 55.85576 -4.12394 20571 ft 409 kts 214°
2026-04-20 13:02 55.83167 -4.15145 21182 ft 413 kts 214°
2026-04-20 13:03 55.80742 -4.17925 21764 ft 416 kts 214°
2026-04-20 13:03 55.78305 -4.20757 22336 ft 420 kts 216°
2026-04-20 13:03 55.75840 -4.23591 22879 ft 425 kts 210°
2026-04-20 13:03 55.73085 -4.25563 23397 ft 432 kts 195°
2026-04-20 13:04 55.70076 -4.26091 23869 ft 439 kts 177°
2026-04-20 13:04 55.67067 -4.24994 24241 ft 445 kts 161°
2026-04-20 13:04 55.64207 -4.22844 24644 ft 449 kts 153°
2026-04-20 13:04 55.61451 -4.20187 25055 ft 452 kts 150°
2026-04-20 13:05 55.58743 -4.17325 25459 ft 455 kts 148°
2026-04-20 13:05 55.56030 -4.14412 25855 ft 458 kts 149°
2026-04-20 13:05 55.53322 -4.11558 26230 ft 461 kts 149°
2026-04-20 13:05 55.50539 -4.08707 26613 ft 464 kts 150°
2026-04-20 13:06 55.47714 -4.05887 26962 ft 467 kts 150°
2026-04-20 13:06 55.44868 -4.03096 27297 ft 470 kts 151°
2026-04-20 13:06 55.41993 -4.00306 27602 ft 474 kts 151°
2026-04-20 13:06 55.39093 -3.97509 27915 ft 477 kts 151°
2026-04-20 13:07 55.36174 -3.94700 28332 ft 477 kts 151°
2026-04-20 13:07 55.33262 -3.91900 28821 ft 477 kts 151°
2026-04-20 13:07 55.30356 -3.89108 29274 ft 476 kts 151°
2026-04-20 13:07 55.27450 -3.86317 29692 ft 476 kts 151°
2026-04-20 13:08 55.24547 -3.83531 30223 ft 474 kts 151°
2026-04-20 13:08 55.21648 -3.80786 30592 ft 473 kts 152°
2026-04-20 13:08 55.18707 -3.78151 30897 ft 474 kts 153°
2026-04-20 13:08 55.15748 -3.75596 31193 ft 474 kts 154°
2026-04-20 13:09 55.12788 -3.73083 31554 ft 473 kts 154°
2026-04-20 13:09 55.09830 -3.70583 31941 ft 471 kts 154°
2026-04-20 13:09 55.06923 -3.68124 32262 ft 470 kts 154°
2026-04-20 13:09 55.03944 -3.65597 32590 ft 469 kts 154°
2026-04-20 13:10 55.01049 -3.63135 32898 ft 469 kts 154°
2026-04-20 13:10 54.98111 -3.60634 33207 ft 468 kts 154°
2026-04-20 13:10 54.95171 -3.58133 33292 ft 470 kts 154°
2026-04-20 13:11 54.89287 -3.53133 33309 ft 471 kts 154°
2026-04-20 13:11 54.83392 -3.48143 33309 ft 471 kts 154°
2026-04-20 13:12 54.77495 -3.43168 33308 ft 471 kts 154°
2026-04-20 13:12 54.71626 -3.38233 33306 ft 471 kts 154°
2026-04-20 13:13 54.65722 -3.33285 33310 ft 472 kts 154°
2026-04-20 13:13 54.59807 -3.28345 33307 ft 472 kts 154°
2026-04-20 13:14 54.53888 -3.23417 33309 ft 472 kts 154°
2026-04-20 13:14 54.47970 -3.18505 33300 ft 471 kts 154°
2026-04-20 13:15 54.42056 -3.13612 33304 ft 472 kts 155°
2026-04-20 13:15 54.36173 -3.08761 33303 ft 472 kts 155°
2026-04-20 13:16 54.30241 -3.03886 33297 ft 472 kts 155°
2026-04-20 13:16 54.25311 -2.99846 33299 ft 472 kts 155°
2026-04-20 13:17 54.19377 -2.94996 33295 ft 473 kts 155°
2026-04-20 13:17 54.13380 -2.90310 33296 ft 474 kts 158°
2026-04-20 13:18 54.07293 -2.85899 33296 ft 474 kts 158°
2026-04-20 13:18 54.01240 -2.81601 33290 ft 474 kts 161°
2026-04-20 13:19 53.94992 -2.78056 33284 ft 473 kts 164°
2026-04-20 13:19 53.88696 -2.74708 33290 ft 474 kts 165°
2026-04-20 13:20 53.82381 -2.71403 33290 ft 475 kts 165°
2026-04-20 13:20 53.76070 -2.68097 33285 ft 475 kts 165°
2026-04-20 13:21 53.69754 -2.64788 33271 ft 475 kts 165°
2026-04-20 13:21 53.63430 -2.61481 33279 ft 476 kts 165°
2026-04-20 13:22 53.57131 -2.58198 33291 ft 476 kts 165°
2026-04-20 13:22 53.50807 -2.54912 33279 ft 475 kts 165°
2026-04-20 13:23 53.44492 -2.51641 33282 ft 475 kts 165°
2026-04-20 13:23 53.38186 -2.48385 33291 ft 474 kts 165°
2026-04-20 13:24 53.31875 -2.45137 33292 ft 474 kts 165°
2026-04-20 13:24 53.25563 -2.41898 33291 ft 474 kts 165°
2026-04-20 13:25 53.19233 -2.38659 33282 ft 475 kts 166°
2026-04-20 13:25 53.12905 -2.35433 33285 ft 476 kts 166°
2026-04-20 13:26 53.06605 -2.32231 33288 ft 476 kts 166°
2026-04-20 13:26 53.00525 -2.27872 33288 ft 479 kts 150°
2026-04-20 13:27 52.94857 -2.21941 33291 ft 483 kts 149°
2026-04-20 13:27 52.89170 -2.15944 33277 ft 485 kts 150°
2026-04-20 13:28 52.83455 -2.09965 33292 ft 485 kts 150°
2026-04-20 13:28 52.77780 -2.04057 33295 ft 485 kts 150°
2026-04-20 13:29 52.72062 -1.98127 33290 ft 486 kts 150°
2026-04-20 13:29 52.66320 -1.92192 33291 ft 487 kts 150°
2026-04-20 13:30 52.60574 -1.86271 33293 ft 487 kts 150°
2026-04-20 13:30 52.54817 -1.80358 33293 ft 487 kts 150°
2026-04-20 13:31 52.49062 -1.74464 33285 ft 488 kts 151°
2026-04-20 13:31 52.43268 -1.68552 33293 ft 492 kts 151°
2026-04-20 13:32 52.37488 -1.62670 33291 ft 492 kts 151°
2026-04-20 13:32 52.31666 -1.56764 33308 ft 492 kts 151°
2026-04-20 13:33 52.25842 -1.50875 33297 ft 493 kts 152°
2026-04-20 13:33 52.20125 -1.44540 33318 ft 500 kts 143°
2026-04-20 13:34 52.14858 -1.37211 33114 ft 492 kts 142°
2026-04-20 13:34 52.12265 -1.33566 32325 ft 494 kts 142°
2026-04-20 13:34 52.09647 -1.29906 31378 ft 500 kts 143°
2026-04-20 13:34 52.06981 -1.26193 30444 ft 506 kts 143°
2026-04-20 13:35 52.04297 -1.22464 29416 ft 510 kts 143°
2026-04-20 13:35 52.01628 -1.18761 28410 ft 511 kts 143°
2026-04-20 13:35 51.98915 -1.15007 27511 ft 513 kts 143°
2026-04-20 13:35 51.96210 -1.11269 26839 ft 508 kts 143°
2026-04-20 13:36 51.93528 -1.07568 26235 ft 503 kts 143°
2026-04-20 13:36 51.90880 -1.03920 25674 ft 497 kts 143°
2026-04-20 13:36 51.88262 -1.00320 25097 ft 492 kts 143°
2026-04-20 13:36 51.85641 -0.96817 24570 ft 486 kts 142°
2026-04-20 13:37 51.83343 -0.92877 24125 ft 480 kts 124°
2026-04-20 13:37 51.81804 -0.88124 23560 ft 474 kts 111°
2026-04-20 13:37 51.80632 -0.83190 22963 ft 467 kts 110°
2026-04-20 13:37 51.79424 -0.78333 22149 ft 466 kts 112°
2026-04-20 13:38 51.78127 -0.73549 21528 ft 461 kts 114°
2026-04-20 13:38 51.76792 -0.68890 21034 ft 454 kts 115°
2026-04-20 13:38 51.75441 -0.64331 20426 ft 447 kts 115°
2026-04-20 13:38 51.74116 -0.59844 19499 ft 438 kts 114°
2026-04-20 13:39 51.72526 -0.55699 18294 ft 434 kts 132°
2026-04-20 13:39 51.70232 -0.52608 16930 ft 427 kts 151°
2026-04-20 13:39 51.67508 -0.50895 15594 ft 417 kts 171°
2026-04-20 13:39 51.64656 -0.50709 14334 ft 406 kts 190°
2026-04-20 13:40 51.62011 -0.52046 13056 ft 394 kts 210°
2026-04-20 13:40 51.59838 -0.54653 11575 ft 388 kts 229°
2026-04-20 13:40 51.58341 -0.58196 10163 ft 382 kts 248°
2026-04-20 13:40 51.57718 -0.62263 9044 ft 368 kts 269°
2026-04-20 13:41 51.58035 -0.66122 8489 ft 341 kts 291°
2026-04-20 13:41 51.59164 -0.69247 8296 ft 307 kts 315°
2026-04-20 13:41 51.60804 -0.71092 8267 ft 273 kts 342°
2026-04-20 13:41 51.62554 -0.71648 8263 ft 243 kts 358°
2026-04-20 13:42 51.64161 -0.71760 8255 ft 219 kts
2026-04-20 13:42 51.67023 -0.71854 8300 ft 223 kts
2026-04-20 13:42 51.68598 -0.71911 8245 ft 224 kts 359°
2026-04-20 13:43 51.70113 -0.72598 7720 ft 234 kts 329°
2026-04-20 13:43 51.71264 -0.74545 7022 ft 251 kts 298°
2026-04-20 13:43 51.71695 -0.77340 6276 ft 268 kts 270°
2026-04-20 13:43 51.71240 -0.80322 5485 ft 282 kts 240°
2026-04-20 13:44 51.69954 -0.82648 5074 ft 275 kts 211°
2026-04-20 13:44 51.68241 -0.83714 4992 ft 256 kts 186°
2026-04-20 13:44 51.66516 -0.84025 5006 ft 246 kts 181°
2026-04-20 13:44 51.64877 -0.84183 4934 ft 229 kts 181°
2026-04-20 13:45 51.63317 -0.84328 4693 ft 221 kts 181°
2026-04-20 13:45 51.61804 -0.84487 4322 ft 217 kts 181°
2026-04-20 13:45 51.60302 -0.84654 4035 ft 216 kts 180°
2026-04-20 13:45 51.58804 -0.84804 3986 ft 217 kts 180°
2026-04-20 13:46 51.57297 -0.84975 3986 ft 217 kts 180°
2026-04-20 13:46 51.55791 -0.85154 3978 ft 216 kts 181°
2026-04-20 13:46 51.54284 -0.85344 3996 ft 218 kts 180°
2026-04-20 13:46 51.52777 -0.85526 3981 ft 216 kts 181°
2026-04-20 13:47 51.51274 -0.85691 3992 ft 217 kts 180°
2026-04-20 13:47 51.49778 -0.85718 3977 ft 212 kts 165°
2026-04-20 13:47 51.48539 -0.84695 3966 ft 196 kts 135°
2026-04-20 13:47 51.47644 -0.83092 3647 ft 190 kts 114°
2026-04-20 13:48 51.47439 -0.81071 3263 ft 183 kts 85°
2026-04-20 13:48 51.47519 -0.79110 3098 ft 169 kts 85°
2026-04-20 13:48 51.47548 -0.77323 3010 ft 154 kts 86°
2026-04-20 13:48 51.47558 -0.75626 3007 ft 155 kts 87°
2026-04-20 13:49 51.47567 -0.73868 2996 ft 155 kts 86°
2026-04-20 13:49 51.47576 -0.72156 2995 ft 154 kts 87°
2026-04-20 13:49 51.47587 -0.70444 2878 ft 154 kts 87°
2026-04-20 13:49 51.47600 -0.68716 2656 ft 156 kts 87°
2026-04-20 13:50 51.47612 -0.66971 2424 ft 157 kts 87°
2026-04-20 13:50 51.47622 -0.65221 2208 ft 157 kts 87°
2026-04-20 13:50 51.47633 -0.63474 1988 ft 155 kts 87°
2026-04-20 13:50 51.47645 -0.61756 1770 ft 154 kts 86°
2026-04-20 13:51 51.47657 -0.60025 1559 ft 156 kts 88°
2026-04-20 13:51 51.47668 -0.58295 1341 ft 155 kts 87°
2026-04-20 13:51 51.47679 -0.56566 1129 ft 154 kts 88°
2026-04-20 13:51 51.47691 -0.54861 909 ft 153 kts 88°
2026-04-20 13:52 51.47702 -0.53181 693 ft 152 kts 87°
2026-04-20 13:52 51.47709 -0.51476 546 ft 159 kts 86°
2026-04-20 13:52 51.47736 -0.49759 271 ft 147 kts 86°
2026-04-20 13:52 51.47749 -0.48216 98 ft 126 kts 89°
2026-04-20 13:53 51.47756 -0.47256 94 ft 46 kts 94°
2026-04-20 13:53 51.47656 -0.47058 97 ft 20 kts 145°
2026-04-20 13:53 51.47610 -0.47018 97 ft 0 kts 146°
2026-04-20 13:53 51.47608 -0.47015 96 ft 1 kts 146°
2026-04-20 13:54 51.47604 -0.47011 96 ft 0 kts 146°
2026-04-20 13:54 51.47584 -0.47012 96 ft 1 kts 217°
2026-04-20 13:55 51.47583 -0.47095 97 ft 22 kts 270°
2026-04-20 13:55 51.47583 -0.47360 95 ft 25 kts 269°
2026-04-20 13:55 51.47582 -0.47649 95 ft 27 kts 270°
2026-04-20 13:55 51.47582 -0.47953 96 ft 27 kts 270°
2026-04-20 13:56 51.47579 -0.48225 98 ft 22 kts 269°
2026-04-20 13:56 51.47573 -0.48437 96 ft 8 kts 249°
2026-04-20 13:56 51.47542 -0.48471 95 ft 6 kts 197°
2026-04-20 13:56 51.47495 -0.48476 94 ft 8 kts 180°
2026-04-20 13:57 51.47430 -0.48484 92 ft 11 kts 203°
2026-04-20 13:57 51.47401 -0.48571 92 ft 4 kts 264°
2026-04-20 13:57 51.47401 -0.48572 92 ft 0 kts 264°